Starlink 6047

operational
NORAD ID: 56460 Int'l Des: 2023-064 Owner: SPXS Country: US Constellation: starlink
LEOCIRCULAR

Starlink 6047について

説明を読み込み中...

リアルタイム位置

3D地球を読み込み中...

次回通過

高度履歴

Altitude vs Time

uPlot chart will show altitude changes over time

軌道要素

1 56460U 23064N 25257.35114976 .00000256 00000-0 29227-4 0 9992
2 56460 69.9970 229.0090 0003210 267.1689 92.9103 14.98332261128835
Epoch: Sep 14, 2025 • Age: 25 hours

現在のステータス

高度 587.4 km
速度 7.57 km/s
衛星直下点 -46.02°S, 68.43°W
打ち上げ日 May 10, 2023
運用期間 2.3 years
タイプ internet

技術仕様

分類 Payload
質量 305.00 kg
乾燥質量 290.00 kg
総質量 305.00 kg
長さ 0.20 m
直径 2.80 m
スパン 9.00 m
形状 Box + pan
製造者 SPXS
バスタイプ Starlink
フェーズステータス In Orbit
所有者/国 SPXS/US

大規模コンステレーション

Loading constellations...